{"data":{"norad_id":68038,"intl_designator":"2026-040Z","name":"STARLINK-36895","alt_names":[],"object_type":"PAYLOAD","status":"ACTIVE","operator":null,"country":"US","launch_date":"2026-03-01","launch_site_code":"AFWTR","launch_vehicle":null,"mission":null,"orbit_class":"UNKNOWN","rcs_meters":null,"size_class":null,"mass_kg":null,"dimensions":null,"purposes":["comms"],"wikipedia_slug":null,"has_3d_model":false,"image_url":null,"decayed_at":null,"tle_current":{"epoch":"2026-09-20T03:13:21.791136Z","epoch_age_seconds":91229,"freshness":"FRESH","line1":"1 68038U 26040Z   26263.13427999  .00018279  00000+0  56681-3 0  9995","line2":"2 68038  97.2858 210.5078 0001903  89.1514 270.9947 15.33462755 31261","mean_motion":15.33462755,"eccentricity":0.0001903,"inclination_deg":97.2858,"raan_deg":210.5078,"arg_perigee_deg":89.1514,"mean_anomaly_deg":270.9947,"bstar":0.00056681,"rev_number":3126,"period_min":93.905117376,"perigee_km":464.1880063151,"apogee_km":466.79269088398,"semimajor_km":6843.6273485995,"source":"CELESTRAK","updated_at":"2026-09-20T09:00:43.746431Z"}}}